Time,TemperatureF,DewpointF,PressureIn,WindDirection,WindDirectionDegrees,WindSpeedMPH,WindSpeedGustMPH,Humidity,HourlyPrecipIn,Conditions,Clouds,dailyrainin,SoftwareType,DateUTC
2013-10-06 00:04:00,41.5,40.5,28.92,North,-999,-999.0,-999.0,96,0.00,,,0.00,meteohub,2013-10-06 05:04:00,
2013-10-06 00:09:00,41.5,40.5,28.92,North,-999,-999.0,-999.0,96,0.00,,,0.00,meteohub,2013-10-06 05:09:00,
2013-10-06 00:14:00,41.4,40.6,28.92,North,-999,-999.0,-999.0,97,0.00,,,0.00,meteohub,2013-10-06 05:14:00,
2013-10-06 00:19:00,41.5,40.8,28.89,North,-999,-999.0,-999.0,97,0.00,,,0.00,meteohub,2013-10-06 05:19:00,
2013-10-06 00:24:00,41.4,40.6,28.89,North,-999,-999.0,-999.0,97,0.00,,,0.00,meteohub,2013-10-06 05:24:00,
2013-10-06 00:29:00,41.4,40.6,28.89,North,-999,-999.0,-999.0,97,0.00,,,0.00,meteohub,2013-10-06 05:29:00,
2013-10-06 00:34:00,41.4,40.6,28.89,North,-999,-999.0,-999.0,97,0.00,,,0.00,meteohub,2013-10-06 05:34:00,
2013-10-06 00:40:00,41.4,40.6,28.89,North,-999,-999.0,-999.0,97,0.00,,,0.00,meteohub,2013-10-06 05:40:00,
2013-10-06 00:45:00,42.3,41.7,28.89,North,-999,-999.0,-999.0,98,0.00,,,0.00,meteohub,2013-10-06 05:45:00,
2013-10-06 00:50:00,42.3,41.7,28.89,North,-999,-999.0,-999.0,98,0.00,,,0.00,meteohub,2013-10-06 05:50:00,
2013-10-06 00:55:00,42.1,41.4,28.89,North,-999,-999.0,-999.0,97,0.00,,,0.00,meteohub,2013-10-06 05:55:00,
2013-10-06 01:00:00,41.9,41.2,28.89,North,-999,-999.0,-999.0,97,0.00,,,0.00,meteohub,2013-10-06 06:00:00,
2013-10-06 01:05:00,41.9,41.2,28.89,North,-999,-999.0,-999.0,97,0.00,,,0.00,meteohub,2013-10-06 06:05:00,
2013-10-06 01:10:00,42.1,41.4,28.89,North,-999,-999.0,-999.0,97,0.00,,,0.00,meteohub,2013-10-06 06:10:00,
2013-10-06 01:15:00,42.3,41.5,28.89,North,-999,-999.0,-999.0,97,0.00,,,0.00,meteohub,2013-10-06 06:15:00,
2013-10-06 01:21:00,42.3,41.7,28.89,North,-999,-999.0,-999.0,98,0.00,,,0.00,meteohub,2013-10-06 06:21:00,
2013-10-06 01:26:00,42.1,41.4,28.89,North,-999,-999.0,-999.0,97,0.00,,,0.00,meteohub,2013-10-06 06:26:00,
2013-10-06 01:31:00,41.7,41.0,28.89,North,-999,-999.0,-999.0,97,0.00,,,0.00,meteohub,2013-10-06 06:31:00,
2013-10-06 01:36:00,41.9,41.2,28.89,North,-999,-999.0,-999.0,97,0.00,,,0.00,meteohub,2013-10-06 06:36:00,
2013-10-06 01:41:00,42.3,41.5,28.89,North,-999,-999.0,-999.0,97,0.00,,,0.00,meteohub,2013-10-06 06:41:00,
2013-10-06 01:46:00,42.3,41.7,28.89,North,-999,-999.0,-999.0,98,0.00,,,0.00,meteohub,2013-10-06 06:46:00,
2013-10-06 01:52:00,42.3,41.7,28.89,North,-999,-999.0,-999.0,98,0.00,,,0.00,meteohub,2013-10-06 06:52:00,
2013-10-06 01:57:00,42.3,41.7,28.89,North,-999,-999.0,-999.0,98,0.00,,,0.00,meteohub,2013-10-06 06:57:00,
2013-10-06 02:02:00,42.4,41.9,28.89,North,-999,-999.0,-999.0,98,0.00,,,0.00,meteohub,2013-10-06 07:02:00,
2013-10-06 02:07:00,42.6,42.1,28.86,North,-999,-999.0,-999.0,98,0.00,,,0.00,meteohub,2013-10-06 07:07:00,
2013-10-06 02:12:00,42.4,41.9,28.86,North,-999,-999.0,-999.0,98,0.00,,,0.00,meteohub,2013-10-06 07:12:00,
2013-10-06 02:17:00,42.4,41.9,28.86,North,-999,-999.0,-999.0,98,0.00,,,0.00,meteohub,2013-10-06 07:17:00,
2013-10-06 02:22:00,42.4,41.9,28.89,North,-999,-999.0,-999.0,98,0.00,,,0.00,meteohub,2013-10-06 07:22:00,
2013-10-06 02:27:00,42.6,42.1,28.89,North,-999,-999.0,-999.0,98,0.00,,,0.00,meteohub,2013-10-06 07:27:00,
2013-10-06 02:32:00,42.4,41.9,28.89,North,-999,-999.0,-999.0,98,0.00,,,0.00,meteohub,2013-10-06 07:32:00,
2013-10-06 02:37:00,42.3,41.7,28.86,North,-999,-999.0,-999.0,98,0.00,,,0.00,meteohub,2013-10-06 07:37:00,
2013-10-06 02:42:00,42.1,41.4,28.86,North,-999,-999.0,-999.0,97,0.00,,,0.00,meteohub,2013-10-06 07:42:00,
2013-10-06 02:47:00,41.9,41.2,28.86,North,-999,-999.0,-999.0,97,0.00,,,0.00,meteohub,2013-10-06 07:47:00,
2013-10-06 02:52:00,41.5,40.8,28.86,North,-999,-999.0,-999.0,97,0.00,,,0.00,meteohub,2013-10-06 07:52:00,
2013-10-06 02:57:00,41.5,40.8,28.86,North,-999,-999.0,-999.0,97,0.00,,,0.00,meteohub,2013-10-06 07:57:00,
2013-10-06 03:02:00,41.5,40.8,28.86,North,-999,-999.0,-999.0,97,0.00,,,0.00,meteohub,2013-10-06 08:02:00,
2013-10-06 03:07:00,41.7,41.2,28.86,North,-999,-999.0,-999.0,98,0.00,,,0.00,meteohub,2013-10-06 08:07:00,
2013-10-06 03:12:00,41.5,41.0,28.86,North,-999,-999.0,-999.0,98,0.00,,,0.00,meteohub,2013-10-06 08:12:00,
2013-10-06 03:17:00,41.5,41.0,28.86,North,-999,-999.0,-999.0,98,0.00,,,0.00,meteohub,2013-10-06 08:17:00,
2013-10-06 03:22:00,41.2,40.6,28.86,North,-999,-999.0,-999.0,98,0.00,,,0.00,meteohub,2013-10-06 08:22:00,
2013-10-06 03:27:00,41.2,40.5,28.86,North,-999,-999.0,-999.0,97,0.00,,,0.00,meteohub,2013-10-06 08:27:00,
2013-10-06 03:32:00,41.0,40.3,28.86,North,-999,-999.0,-999.0,97,0.00,,,0.00,meteohub,2013-10-06 08:32:00,
2013-10-06 03:37:00,41.0,40.3,28.86,North,-999,-999.0,-999.0,97,0.00,,,0.00,meteohub,2013-10-06 08:37:00,
2013-10-06 03:42:00,40.8,40.3,28.86,North,-999,-999.0,-999.0,98,0.00,,,0.00,meteohub,2013-10-06 08:42:00,
2013-10-06 03:47:00,40.5,39.9,28.86,North,-999,-999.0,-999.0,98,0.00,,,0.00,meteohub,2013-10-06 08:47:00,
2013-10-06 03:52:00,40.5,39.9,28.83,North,-999,-999.0,-999.0,98,0.00,,,0.00,meteohub,2013-10-06 08:52:00,
2013-10-06 03:57:00,40.5,39.9,28.83,North,-999,-999.0,-999.0,98,0.00,,,0.00,meteohub,2013-10-06 08:57:00,
2013-10-06 04:02:00,40.5,39.9,28.83,North,-999,-999.0,-999.0,98,0.00,,,0.00,meteohub,2013-10-06 09:02:00,
2013-10-06 04:07:00,40.3,39.7,28.86,North,-999,-999.0,-999.0,98,0.00,,,0.00,meteohub,2013-10-06 09:07:00,
2013-10-06 04:09:00,40.1,39.6,28.86,North,-999,-999.0,-999.0,98,0.00,,,0.00,meteohub,2013-10-06 09:09:00,
2013-10-06 04:14:00,40.1,39.6,28.86,North,-999,-999.0,-999.0,98,0.00,,,0.00,meteohub,2013-10-06 09:14:00,
2013-10-06 04:19:00,39.9,39.4,28.86,North,-999,-999.0,-999.0,98,0.00,,,0.00,meteohub,2013-10-06 09:19:00,
2013-10-06 04:24:00,39.9,39.4,28.83,North,-999,-999.0,-999.0,98,0.00,,,0.00,meteohub,2013-10-06 09:24:00,
2013-10-06 04:30:00,39.9,39.4,28.83,North,-999,-999.0,-999.0,98,0.00,,,0.00,meteohub,2013-10-06 09:30:00,
2013-10-06 04:35:00,40.1,39.6,28.86,North,-999,-999.0,-999.0,98,0.00,,,0.00,meteohub,2013-10-06 09:35:00,
2013-10-06 04:40:00,40.3,39.7,28.86,North,-999,-999.0,-999.0,98,0.00,,,0.00,meteohub,2013-10-06 09:40:00,
2013-10-06 04:45:00,39.9,39.4,28.86,North,-999,-999.0,-999.0,98,0.00,,,0.00,meteohub,2013-10-06 09:45:00,
2013-10-06 04:50:00,39.7,39.2,28.83,North,-999,-999.0,-999.0,98,0.00,,,0.00,meteohub,2013-10-06 09:50:00,
2013-10-06 04:55:00,39.4,38.8,28.83,North,-999,-999.0,-999.0,98,0.00,,,0.00,meteohub,2013-10-06 09:55:00,
2013-10-06 05:00:00,39.4,38.8,28.83,North,-999,-999.0,-999.0,98,0.00,,,0.00,meteohub,2013-10-06 10:00:00,
2013-10-06 05:05:00,39.6,39.0,28.86,North,-999,-999.0,-999.0,98,0.00,,,0.00,meteohub,2013-10-06 10:05:00,
2013-10-06 05:11:00,39.4,38.8,28.86,North,-999,-999.0,-999.0,98,0.00,,,0.00,meteohub,2013-10-06 10:11:00,
2013-10-06 05:16:00,39.4,38.8,28.86,North,-999,-999.0,-999.0,98,0.00,,,0.00,meteohub,2013-10-06 10:16:00,
2013-10-06 05:21:00,39.2,38.7,28.86,North,-999,-999.0,-999.0,98,0.00,,,0.00,meteohub,2013-10-06 10:21:00,
2013-10-06 05:26:00,39.2,38.7,28.86,North,-999,-999.0,-999.0,98,0.00,,,0.00,meteohub,2013-10-06 10:26:00,
2013-10-06 05:31:00,39.2,38.7,28.86,North,-999,-999.0,-999.0,98,0.00,,,0.00,meteohub,2013-10-06 10:31:00,
2013-10-06 05:36:00,39.2,38.7,28.86,North,-999,-999.0,-999.0,98,0.00,,,0.00,meteohub,2013-10-06 10:36:00,
2013-10-06 05:41:00,39.2,38.7,28.86,North,-999,-999.0,-999.0,98,0.00,,,0.00,meteohub,2013-10-06 10:41:00,
2013-10-06 05:46:00,38.8,38.3,28.86,North,-999,-999.0,-999.0,98,0.00,,,0.00,meteohub,2013-10-06 10:46:00,
2013-10-06 05:51:00,38.8,38.3,28.83,North,-999,-999.0,-999.0,98,0.00,,,0.00,meteohub,2013-10-06 10:51:00,
2013-10-06 05:57:00,38.7,38.1,28.83,North,-999,-999.0,-999.0,98,0.00,,,0.00,meteohub,2013-10-06 10:57:00,
2013-10-06 06:02:00,38.7,38.1,28.83,North,-999,-999.0,-999.0,98,0.00,,,0.00,meteohub,2013-10-06 11:02:00,
2013-10-06 06:07:00,38.8,38.3,28.86,North,-999,-999.0,-999.0,98,0.00,,,0.00,meteohub,2013-10-06 11:07:00,
2013-10-06 06:12:00,39.2,38.7,28.86,North,-999,-999.0,-999.0,98,0.00,,,0.00,meteohub,2013-10-06 11:12:00,
2013-10-06 06:17:00,39.2,38.7,28.86,North,-999,-999.0,-999.0,98,0.00,,,0.00,meteohub,2013-10-06 11:17:00,
2013-10-06 06:22:00,38.8,38.3,28.86,North,-999,-999.0,-999.0,98,0.00,,,0.00,meteohub,2013-10-06 11:22:00,
2013-10-06 06:27:00,38.8,38.3,28.86,North,-999,-999.0,-999.0,98,0.00,,,0.00,meteohub,2013-10-06 11:27:00,
2013-10-06 06:32:00,38.7,38.1,28.86,North,-999,-999.0,-999.0,98,0.00,,,0.00,meteohub,2013-10-06 11:32:00,
2013-10-06 06:37:00,38.7,38.1,28.83,North,-999,-999.0,-999.0,98,0.00,,,0.00,meteohub,2013-10-06 11:37:00,
2013-10-06 06:42:00,38.5,37.9,28.83,North,-999,-999.0,-999.0,98,0.00,,,0.00,meteohub,2013-10-06 11:42:00,
2013-10-06 06:47:00,38.5,37.9,28.83,North,-999,-999.0,-999.0,98,0.00,,,0.00,meteohub,2013-10-06 11:47:00,
2013-10-06 06:52:00,38.7,38.1,28.83,North,-999,-999.0,-999.0,98,0.00,,,0.00,meteohub,2013-10-06 11:52:00,
2013-10-06 06:57:00,38.8,38.3,28.83,North,-999,-999.0,-999.0,98,0.00,,,0.00,meteohub,2013-10-06 11:57:00,
2013-10-06 07:02:00,39.2,38.7,28.83,North,-999,-999.0,-999.0,98,0.00,,,0.00,meteohub,2013-10-06 12:02:00,
2013-10-06 07:07:00,39.4,38.8,28.83,North,-999,-999.0,-999.0,98,0.00,,,0.00,meteohub,2013-10-06 12:07:00,
2013-10-06 07:12:00,39.7,39.2,28.83,North,-999,-999.0,-999.0,98,0.00,,,0.00,meteohub,2013-10-06 12:12:00,
2013-10-06 07:17:00,40.3,39.7,28.83,North,-999,-999.0,-999.0,98,0.00,,,0.00,meteohub,2013-10-06 12:17:00,
2013-10-06 07:22:00,40.6,40.1,28.83,North,-999,-999.0,-999.0,98,0.00,,,0.00,meteohub,2013-10-06 12:22:00,
2013-10-06 07:27:00,40.8,40.3,28.83,North,-999,-999.0,-999.0,98,0.00,,,0.00,meteohub,2013-10-06 12:27:00,
2013-10-06 07:32:00,41.4,40.8,28.83,North,-999,-999.0,-999.0,98,0.00,,,0.00,meteohub,2013-10-06 12:32:00,
2013-10-06 07:37:00,41.5,41.0,28.86,North,-999,-999.0,-999.0,98,0.00,,,0.00,meteohub,2013-10-06 12:37:00,
2013-10-06 07:42:00,41.5,41.0,28.86,North,-999,-999.0,-999.0,98,0.00,,,0.00,meteohub,2013-10-06 12:42:00,
2013-10-06 07:47:00,41.2,40.6,28.86,North,-999,-999.0,-999.0,98,0.00,,,0.00,meteohub,2013-10-06 12:47:00,
2013-10-06 07:52:00,41.0,40.5,28.86,North,-999,-999.0,-999.0,98,0.00,,,0.00,meteohub,2013-10-06 12:52:00,
2013-10-06 07:57:00,40.8,40.3,28.86,North,-999,-999.0,-999.0,98,0.00,,,0.00,meteohub,2013-10-06 12:57:00,
2013-10-06 08:02:00,40.8,40.3,28.86,North,-999,-999.0,-999.0,98,0.00,,,0.00,meteohub,2013-10-06 13:02:00,
2013-10-06 08:07:00,40.6,40.1,28.83,North,-999,-999.0,-999.0,98,0.00,,,0.00,meteohub,2013-10-06 13:07:00,
2013-10-06 08:12:00,40.6,40.1,28.83,North,-999,-999.0,-999.0,98,0.00,,,0.00,meteohub,2013-10-06 13:12:00,
2013-10-06 08:17:00,40.5,39.9,28.83,North,-999,-999.0,-999.0,98,0.00,,,0.00,meteohub,2013-10-06 13:17:00,
2013-10-06 08:22:00,40.5,39.9,28.83,North,-999,-999.0,-999.0,98,0.00,,,0.00,meteohub,2013-10-06 13:22:00,
2013-10-06 08:27:00,40.6,40.1,28.83,North,-999,-999.0,-999.0,98,0.00,,,0.00,meteohub,2013-10-06 13:27:00,
2013-10-06 08:32:00,41.2,40.6,28.83,North,-999,-999.0,-999.0,98,0.00,,,0.00,meteohub,2013-10-06 13:32:00,
2013-10-06 08:37:00,41.7,41.2,28.86,North,-999,-999.0,-999.0,98,0.00,,,0.00,meteohub,2013-10-06 13:37:00,
2013-10-06 08:42:00,42.1,41.5,28.86,North,-999,-999.0,-999.0,98,0.00,,,0.00,meteohub,2013-10-06 13:42:00,
2013-10-06 08:47:00,42.6,42.1,28.86,North,-999,-999.0,-999.0,98,0.00,,,0.00,meteohub,2013-10-06 13:47:00,
2013-10-06 08:52:00,43.0,42.4,28.86,North,-999,-999.0,-999.0,98,0.00,,,0.00,meteohub,2013-10-06 13:52:00,
2013-10-06 08:57:00,43.2,42.6,28.86,North,-999,-999.0,-999.0,98,0.00,,,0.00,meteohub,2013-10-06 13:57:00,
2013-10-06 09:02:00,43.3,42.8,28.86,North,-999,-999.0,-999.0,98,0.00,,,0.00,meteohub,2013-10-06 14:02:00,
2013-10-06 09:07:00,43.5,43.0,28.86,North,-999,-999.0,-999.0,98,0.00,,,0.00,meteohub,2013-10-06 14:07:00,
2013-10-06 09:12:00,43.7,43.2,28.86,North,-999,-999.0,-999.0,98,0.00,,,0.00,meteohub,2013-10-06 14:12:00,
2013-10-06 09:17:00,44.4,43.9,28.86,North,-999,-999.0,-999.0,98,0.00,,,0.00,meteohub,2013-10-06 14:17:00,
2013-10-06 09:22:00,45.1,44.6,28.86,North,-999,-999.0,-999.0,98,0.00,,,0.00,meteohub,2013-10-06 14:22:00,
2013-10-06 09:27:00,45.3,44.8,28.86,North,-999,-999.0,-999.0,98,0.00,,,0.00,meteohub,2013-10-06 14:27:00,
2013-10-06 09:32:00,45.1,44.6,28.86,North,-999,-999.0,-999.0,98,0.00,,,0.00,meteohub,2013-10-06 14:32:00,
2013-10-06 09:37:00,45.1,44.6,28.83,North,-999,-999.0,-999.0,98,0.00,,,0.00,meteohub,2013-10-06 14:37:00,
2013-10-06 09:42:00,45.0,44.4,28.83,North,-999,-999.0,-999.0,98,0.00,,,0.00,meteohub,2013-10-06 14:42:00,
2013-10-06 09:47:00,45.3,44.8,28.83,North,-999,-999.0,-999.0,98,0.00,,,0.00,meteohub,2013-10-06 14:47:00,
2013-10-06 09:52:00,45.7,45.1,28.86,North,-999,-999.0,-999.0,98,0.00,,,0.00,meteohub,2013-10-06 14:52:00,
2013-10-06 09:57:00,46.0,45.5,28.86,North,-999,-999.0,-999.0,98,0.00,,,0.00,meteohub,2013-10-06 14:57:00,
2013-10-06 10:02:00,46.4,45.9,28.86,North,-999,-999.0,-999.0,98,0.00,,,0.00,meteohub,2013-10-06 15:02:00,
2013-10-06 10:07:00,46.9,46.4,28.86,North,-999,-999.0,-999.0,98,0.00,,,0.00,meteohub,2013-10-06 15:07:00,
2013-10-06 10:12:00,47.3,46.8,28.86,North,-999,-999.0,-999.0,98,0.00,,,0.00,meteohub,2013-10-06 15:12:00,
2013-10-06 10:17:00,47.7,47.1,28.86,North,-999,-999.0,-999.0,98,0.00,,,0.00,meteohub,2013-10-06 15:17:00,
2013-10-06 10:22:00,47.8,47.3,28.86,North,-999,-999.0,-999.0,98,0.00,,,0.00,meteohub,2013-10-06 15:22:00,
2013-10-06 10:27:00,48.2,47.7,28.86,North,-999,-999.0,-999.0,98,0.00,,,0.00,meteohub,2013-10-06 15:27:00,
2013-10-06 10:32:00,48.6,48.0,28.86,North,-999,-999.0,-999.0,98,0.00,,,0.00,meteohub,2013-10-06 15:32:00,
2013-10-06 10:37:00,48.6,48.0,28.86,North,-999,-999.0,-999.0,98,0.00,,,0.00,meteohub,2013-10-06 15:37:00,
2013-10-06 10:42:00,48.9,48.4,28.86,North,-999,-999.0,-999.0,98,0.00,,,0.00,meteohub,2013-10-06 15:42:00,
2013-10-06 10:47:00,49.1,48.6,28.86,North,-999,-999.0,-999.0,98,0.00,,,0.00,meteohub,2013-10-06 15:47:00,
2013-10-06 10:52:00,49.1,48.6,28.86,North,-999,-999.0,-999.0,98,0.00,,,0.00,meteohub,2013-10-06 15:52:00,
2013-10-06 10:57:00,49.3,48.7,28.86,North,-999,-999.0,-999.0,98,0.00,,,0.00,meteohub,2013-10-06 15:57:00,
2013-10-06 11:02:00,49.5,48.9,28.86,North,-999,-999.0,-999.0,98,0.00,,,0.00,meteohub,2013-10-06 16:02:00,
2013-10-06 11:07:00,49.6,49.1,28.86,North,-999,-999.0,-999.0,98,0.00,,,0.00,meteohub,2013-10-06 16:07:00,
2013-10-06 11:12:00,50.0,49.5,28.86,North,-999,-999.0,-999.0,98,0.00,,,0.00,meteohub,2013-10-06 16:12:00,
2013-10-06 11:17:00,50.5,50.0,28.86,North,-999,-999.0,-999.0,98,0.00,,,0.00,meteohub,2013-10-06 16:17:00,
2013-10-06 11:22:00,50.9,50.4,28.86,North,-999,-999.0,-999.0,98,0.04,,,0.04,meteohub,2013-10-06 16:22:00,
2013-10-06 11:27:00,52.0,51.4,28.86,North,-999,-999.0,-999.0,98,0.04,,,0.04,meteohub,2013-10-06 16:27:00,
2013-10-06 11:32:00,52.2,51.6,28.86,North,-999,-999.0,-999.0,98,0.04,,,0.04,meteohub,2013-10-06 16:32:00,
2013-10-06 11:37:00,52.0,51.4,28.86,North,-999,-999.0,-999.0,98,0.04,,,0.04,meteohub,2013-10-06 16:37:00,
2013-10-06 11:42:00,52.0,51.4,28.86,North,-999,-999.0,-999.0,98,0.04,,,0.04,meteohub,2013-10-06 16:42:00,
2013-10-06 11:47:00,51.8,51.3,28.86,North,-999,-999.0,-999.0,98,0.04,,,0.04,meteohub,2013-10-06 16:47:00,
2013-10-06 11:52:00,51.8,51.3,28.86,North,-999,-999.0,-999.0,98,0.04,,,0.04,meteohub,2013-10-06 16:52:00,
2013-10-06 11:57:00,52.0,51.4,28.86,North,-999,-999.0,-999.0,98,0.04,,,0.04,meteohub,2013-10-06 16:57:00,
2013-10-06 12:02:00,52.0,51.4,28.86,North,-999,-999.0,-999.0,98,0.04,,,0.04,meteohub,2013-10-06 17:02:00,
2013-10-06 12:07:00,52.2,51.6,28.86,North,-999,-999.0,-999.0,98,0.04,,,0.04,meteohub,2013-10-06 17:07:00,
2013-10-06 12:12:00,52.9,52.3,28.86,North,-999,-999.0,-999.0,98,0.04,,,0.04,meteohub,2013-10-06 17:12:00,
2013-10-06 12:17:00,52.9,52.3,28.86,North,-999,-999.0,-999.0,98,0.00,,,0.04,meteohub,2013-10-06 17:17:00,
2013-10-06 12:22:00,53.1,52.5,28.83,North,-999,-999.0,-999.0,98,0.00,,,0.04,meteohub,2013-10-06 17:22:00,
2013-10-06 12:27:00,55.9,55.4,28.83,ENE,68,2.0,-999.0,98,0.00,,,0.04,meteohub,2013-10-06 17:27:00,
2013-10-06 12:32:00,55.6,55.0,28.83,NE,45,0.0,3.0,98,0.00,,,0.04,meteohub,2013-10-06 17:32:00,
2013-10-06 12:37:00,54.5,53.6,28.86,NE,45,2.0,3.0,97,0.00,,,0.04,meteohub,2013-10-06 17:37:00,
2013-10-06 12:42:00,55.0,53.4,28.86,NE,45,3.0,3.0,94,0.00,,,0.04,meteohub,2013-10-06 17:42:00,
2013-10-06 12:47:00,55.0,53.4,28.86,NNE,22,0.0,3.0,94,0.00,,,0.04,meteohub,2013-10-06 17:47:00,
2013-10-06 12:52:00,54.7,51.8,28.86,NE,45,2.0,3.0,90,0.00,,,0.04,meteohub,2013-10-06 17:52:00,
2013-10-06 12:57:00,54.3,51.4,28.86,NNE,22,2.0,3.0,90,0.00,,,0.04,meteohub,2013-10-06 17:57:00,
2013-10-06 13:02:00,54.3,51.1,28.86,NNE,22,3.0,4.0,89,0.00,,,0.04,meteohub,2013-10-06 18:02:00,
2013-10-06 13:07:00,54.7,51.4,28.86,ESE,112,1.0,4.0,89,0.00,,,0.04,meteohub,2013-10-06 18:07:00,
2013-10-06 13:12:00,54.1,50.4,28.86,NE,45,5.0,5.0,87,0.00,,,0.04,meteohub,2013-10-06 18:12:00,
2013-10-06 13:17:00,54.0,49.8,28.86,ENE,68,1.0,5.0,86,0.00,,,0.04,meteohub,2013-10-06 18:17:00,
2013-10-06 13:22:00,54.1,50.0,28.86,NE,45,2.0,5.0,86,0.00,,,0.04,meteohub,2013-10-06 18:22:00,
2013-10-06 13:27:00,54.0,49.8,28.86,ENE,68,3.0,5.0,86,0.00,,,0.04,meteohub,2013-10-06 18:27:00,
2013-10-06 13:32:00,54.1,50.0,28.86,NNE,22,3.0,5.0,86,0.00,,,0.04,meteohub,2013-10-06 18:32:00,
2013-10-06 13:37:00,54.3,50.2,28.86,NNE,22,2.0,5.0,86,0.00,,,0.04,meteohub,2013-10-06 18:37:00,
2013-10-06 13:42:00,54.5,50.0,28.86,NE,45,0.0,5.0,85,0.00,,,0.04,meteohub,2013-10-06 18:42:00,
2013-10-06 13:47:00,55.4,50.9,28.86,NE,45,1.0,5.0,85,0.00,,,0.04,meteohub,2013-10-06 18:47:00,
2013-10-06 13:52:00,56.1,51.6,28.86,NNE,22,3.0,3.0,85,0.00,,,0.04,meteohub,2013-10-06 18:52:00,
2013-10-06 13:57:00,55.4,49.6,28.86,NNE,22,3.0,3.0,81,0.00,,,0.04,meteohub,2013-10-06 18:57:00,
2013-10-06 14:02:00,54.5,49.1,28.86,NNE,22,3.0,3.0,82,0.00,,,0.04,meteohub,2013-10-06 19:02:00,
2013-10-06 14:07:00,54.1,48.7,28.86,NE,45,3.0,4.0,82,0.00,,,0.04,meteohub,2013-10-06 19:07:00,
2013-10-06 14:12:00,53.6,48.6,28.86,NNW,338,3.0,5.0,83,0.00,,,0.04,meteohub,2013-10-06 19:12:00,
2013-10-06 14:17:00,53.2,48.6,28.86,NE,45,3.0,5.0,84,0.00,,,0.04,meteohub,2013-10-06 19:17:00,
2013-10-06 14:22:00,53.2,48.6,28.86,NNE,22,3.0,5.0,84,0.00,,,0.04,meteohub,2013-10-06 19:22:00,
2013-10-06 14:27:00,52.9,48.6,28.86,NE,45,2.0,5.0,85,0.00,,,0.04,meteohub,2013-10-06 19:27:00,
2013-10-06 14:32:00,52.9,48.7,28.86,ENE,68,2.0,5.0,86,0.00,,,0.04,meteohub,2013-10-06 19:32:00,
2013-10-06 14:37:00,53.1,48.9,28.86,NNE,22,3.0,4.0,86,0.00,,,0.04,meteohub,2013-10-06 19:37:00,
2013-10-06 14:42:00,52.9,48.7,28.86,NW,315,3.0,4.0,86,0.00,,,0.04,meteohub,2013-10-06 19:42:00,
2013-10-06 14:47:00,52.7,48.6,28.86,NW,315,4.0,7.0,86,0.00,,,0.04,meteohub,2013-10-06 19:47:00,
2013-10-06 14:52:00,52.7,48.6,28.89,NNE,22,3.0,7.0,86,0.00,,,0.04,meteohub,2013-10-06 19:52:00,
2013-10-06 14:57:00,52.0,48.6,28.89,NE,45,4.0,4.0,88,0.00,,,0.04,meteohub,2013-10-06 19:57:00,
2013-10-06 15:02:00,51.6,48.6,28.89,NNE,22,2.0,9.0,89,0.00,,,0.04,meteohub,2013-10-06 20:02:00,
2013-10-06 15:07:00,51.4,48.9,28.89,NE,45,3.0,9.0,91,0.00,,,0.04,meteohub,2013-10-06 20:07:00,
2013-10-06 15:12:00,51.3,49.1,28.89,NE,45,2.0,9.0,92,0.00,,,0.04,meteohub,2013-10-06 20:12:00,
2013-10-06 15:17:00,51.3,49.3,28.89,NW,315,3.0,7.0,93,0.00,,,0.04,meteohub,2013-10-06 20:17:00,
2013-10-06 15:22:00,51.4,49.5,28.89,NNE,22,3.0,7.0,93,0.00,,,0.04,meteohub,2013-10-06 20:22:00,
2013-10-06 15:27:00,51.6,50.0,28.89,NNE,22,4.0,6.0,94,0.00,,,0.04,meteohub,2013-10-06 20:27:00,
2013-10-06 15:32:00,51.6,50.0,28.89,NNE,22,3.0,4.0,94,0.00,,,0.04,meteohub,2013-10-06 20:32:00,
2013-10-06 15:37:00,51.6,50.0,28.89,North,0,3.0,5.0,94,0.00,,,0.04,meteohub,2013-10-06 20:37:00,
2013-10-06 15:42:00,51.6,49.6,28.89,NE,45,4.0,7.0,93,0.00,,,0.04,meteohub,2013-10-06 20:42:00,
2013-10-06 15:47:00,51.8,49.6,28.89,NE,45,2.0,7.0,92,0.00,,,0.04,meteohub,2013-10-06 20:47:00,
2013-10-06 15:52:00,52.0,49.8,28.89,East,90,3.0,7.0,92,0.00,,,0.04,meteohub,2013-10-06 20:52:00,
2013-10-06 15:57:00,52.0,49.8,28.89,ESE,112,2.0,4.0,92,0.00,,,0.04,meteohub,2013-10-06 20:57:00,
2013-10-06 16:02:00,51.6,49.6,28.89,NNE,22,4.0,6.0,93,0.00,,,0.04,meteohub,2013-10-06 21:02:00,
2013-10-06 16:07:00,51.4,49.5,28.89,NNW,338,4.0,6.0,93,0.00,,,0.04,meteohub,2013-10-06 21:07:00,
2013-10-06 16:12:00,51.4,49.5,28.89,NE,45,2.0,5.0,93,0.00,,,0.04,meteohub,2013-10-06 21:12:00,
2013-10-06 16:17:00,51.3,49.3,28.89,NE,45,4.0,9.0,93,0.00,,,0.04,meteohub,2013-10-06 21:17:00,
2013-10-06 16:22:00,51.3,49.3,28.89,NNE,22,3.0,9.0,93,0.00,,,0.04,meteohub,2013-10-06 21:22:00,
2013-10-06 16:27:00,51.3,49.3,28.89,NE,45,6.0,6.0,93,0.00,,,0.04,meteohub,2013-10-06 21:27:00,
2013-10-06 16:32:00,51.3,49.6,28.89,NNE,22,4.0,8.0,94,0.00,,,0.04,meteohub,2013-10-06 21:32:00,
2013-10-06 16:37:00,51.4,49.5,28.89,North,0,3.0,8.0,93,0.00,,,0.04,meteohub,2013-10-06 21:37:00,
2013-10-06 16:42:00,51.6,48.7,28.89,NE,45,5.0,6.0,90,0.00,,,0.04,meteohub,2013-10-06 21:42:00,
2013-10-06 16:47:00,51.4,48.0,28.89,ENE,68,5.0,7.0,88,0.00,,,0.04,meteohub,2013-10-06 21:47:00,
2013-10-06 16:52:00,51.4,48.0,28.89,East,90,3.0,7.0,88,0.00,,,0.04,meteohub,2013-10-06 21:52:00,
2013-10-06 16:57:00,51.3,48.4,28.89,NNW,338,3.0,9.0,90,0.00,,,0.04,meteohub,2013-10-06 21:57:00,
2013-10-06 17:02:00,51.3,48.4,28.89,NNW,338,2.0,9.0,90,0.00,,,0.04,meteohub,2013-10-06 22:02:00,
2013-10-06 17:07:00,51.1,48.2,28.92,NNE,22,4.0,8.0,90,0.00,,,0.04,meteohub,2013-10-06 22:07:00,
2013-10-06 17:12:00,50.5,46.8,28.92,NNW,338,7.0,8.0,87,0.00,,,0.04,meteohub,2013-10-06 22:12:00,
2013-10-06 17:17:00,50.4,46.6,28.92,North,0,6.0,12.0,87,0.00,,,0.04,meteohub,2013-10-06 22:17:00,
2013-10-06 17:22:00,50.2,46.4,28.95,ENE,68,3.0,12.0,87,0.00,,,0.04,meteohub,2013-10-06 22:22:00,
2013-10-06 17:27:00,50.2,46.4,28.95,NE,45,4.0,8.0,87,0.00,,,0.04,meteohub,2013-10-06 22:27:00,
2013-10-06 17:32:00,50.2,46.2,28.95,NNE,22,3.0,6.0,86,0.00,,,0.04,meteohub,2013-10-06 22:32:00,
2013-10-06 17:37:00,50.2,46.4,28.92,North,0,3.0,6.0,87,0.00,,,0.04,meteohub,2013-10-06 22:37:00,
2013-10-06 17:42:00,49.8,46.4,28.92,NNE,22,5.0,6.0,88,0.00,,,0.04,meteohub,2013-10-06 22:42:00,
2013-10-06 17:47:00,49.5,46.4,28.92,NNE,22,3.0,9.0,89,0.00,,,0.04,meteohub,2013-10-06 22:47:00,
2013-10-06 17:52:00,49.3,46.8,28.92,ESE,112,4.0,9.0,91,0.00,,,0.04,meteohub,2013-10-06 22:52:00,
2013-10-06 17:57:00,49.1,46.6,28.92,NE,45,4.0,9.0,91,0.00,,,0.04,meteohub,2013-10-06 22:57:00,
2013-10-06 18:02:00,49.1,46.6,28.92,NE,45,3.0,8.0,91,0.00,,,0.04,meteohub,2013-10-06 23:02:00,
2013-10-06 18:07:00,49.1,46.6,28.95,ENE,68,2.0,9.0,91,0.00,,,0.04,meteohub,2013-10-06 23:07:00,
2013-10-06 18:12:00,49.1,46.6,28.95,NNE,22,4.0,9.0,91,0.00,,,0.04,meteohub,2013-10-06 23:12:00,
2013-10-06 18:17:00,48.9,46.4,28.95,NNE,22,3.0,9.0,91,0.00,,,0.04,meteohub,2013-10-06 23:17:00,
2013-10-06 18:22:00,48.7,46.2,28.95,NNE,22,8.0,8.0,91,0.00,,,0.04,meteohub,2013-10-06 23:22:00,
2013-10-06 18:27:00,48.7,46.2,28.95,NNE,22,3.0,8.0,91,0.00,,,0.04,meteohub,2013-10-06 23:27:00,
2013-10-06 18:32:00,48.6,46.6,28.95,East,90,3.0,8.0,93,0.00,,,0.04,meteohub,2013-10-06 23:32:00,
2013-10-06 18:37:00,48.6,46.6,28.95,NNE,22,8.0,8.0,93,0.00,,,0.04,meteohub,2013-10-06 23:37:00,
2013-10-06 18:42:00,48.6,46.9,28.95,NW,315,6.0,10.0,94,0.00,,,0.04,meteohub,2013-10-06 23:42:00,
2013-10-06 18:47:00,48.4,46.9,28.95,NNW,338,2.0,10.0,95,0.00,,,0.04,meteohub,2013-10-06 23:47:00,
2013-10-06 18:52:00,48.4,46.9,28.95,NE,45,4.0,10.0,95,0.00,,,0.04,meteohub,2013-10-06 23:52:00,
2013-10-06 18:57:00,48.4,46.9,28.95,NNE,22,2.0,6.0,95,0.00,,,0.04,meteohub,2013-10-06 23:57:00,
2013-10-06 19:02:00,48.4,47.3,28.95,East,90,4.0,4.0,96,0.00,,,0.04,meteohub,2013-10-07 00:02:00,
2013-10-06 19:07:00,48.4,47.3,28.98,ENE,68,2.0,6.0,96,0.00,,,0.00,meteohub,2013-10-07 00:07:00,
2013-10-06 19:12:00,48.4,47.3,28.98,NNW,338,4.0,6.0,96,0.00,,,0.00,meteohub,2013-10-07 00:12:00,
2013-10-06 19:17:00,48.4,47.3,28.98,NW,315,4.0,6.0,96,0.00,,,0.00,meteohub,2013-10-07 00:17:00,
2013-10-06 19:22:00,48.6,47.7,28.98,North,0,5.0,6.0,97,0.00,,,0.00,meteohub,2013-10-07 00:22:00,
2013-10-06 19:27:00,48.6,47.7,28.98,NNE,22,5.0,6.0,97,0.00,,,0.00,meteohub,2013-10-07 00:27:00,
2013-10-06 19:32:00,48.6,47.7,28.98,WNW,292,3.0,6.0,97,0.00,,,0.00,meteohub,2013-10-07 00:32:00,
2013-10-06 19:37:00,48.6,47.7,28.98,NE,45,3.0,6.0,97,0.00,,,0.00,meteohub,2013-10-07 00:37:00,
2013-10-06 19:42:00,48.4,47.3,28.98,NNE,22,1.0,5.0,96,0.00,,,0.00,meteohub,2013-10-07 00:42:00,
2013-10-06 19:47:00,48.2,47.1,28.98,North,0,3.0,5.0,96,0.00,,,0.00,meteohub,2013-10-07 00:47:00,
2013-10-06 19:52:00,48.0,47.3,28.98,NNW,338,4.0,4.0,97,0.00,,,0.00,meteohub,2013-10-07 00:52:00,
2013-10-06 19:57:00,47.8,47.1,28.98,WNW,292,2.0,6.0,97,0.00,,,0.00,meteohub,2013-10-07 00:57:00,
2013-10-06 20:02:00,47.8,47.1,28.98,NNW,338,2.0,6.0,97,0.00,,,0.00,meteohub,2013-10-07 01:02:00,
2013-10-06 20:07:00,47.8,47.1,28.95,NNW,338,2.0,6.0,97,0.00,,,0.00,meteohub,2013-10-07 01:07:00,
2013-10-06 20:12:00,47.7,46.9,28.95,WNW,292,3.0,4.0,97,0.00,,,0.00,meteohub,2013-10-07 01:12:00,
2013-10-06 20:17:00,47.7,46.9,28.95,NNW,338,2.0,4.0,97,0.00,,,0.00,meteohub,2013-10-07 01:17:00,
2013-10-06 20:22:00,47.5,46.8,28.98,NW,315,0.0,4.0,97,0.00,,,0.00,meteohub,2013-10-07 01:22:00,
2013-10-06 20:27:00,47.3,46.6,28.98,NNW,338,0.0,4.0,97,0.00,,,0.00,meteohub,2013-10-07 01:27:00,
2013-10-06 20:32:00,47.1,46.4,28.98,North,0,2.0,3.0,97,0.00,,,0.00,meteohub,2013-10-07 01:32:00,
2013-10-06 20:37:00,46.9,46.2,28.95,WSW,248,1.0,3.0,97,0.00,,,0.00,meteohub,2013-10-07 01:37:00,
2013-10-06 20:42:00,46.8,46.0,28.95,ENE,68,0.0,3.0,97,0.00,,,0.00,meteohub,2013-10-07 01:42:00,
2013-10-06 20:47:00,46.6,45.9,28.95,NNW,338,0.0,3.0,97,0.00,,,0.00,meteohub,2013-10-07 01:47:00,
2013-10-06 20:52:00,46.6,45.9,28.98,NNE,22,2.0,2.0,97,0.00,,,0.00,meteohub,2013-10-07 01:52:00,
2013-10-06 20:57:00,46.6,45.9,28.98,NW,315,1.0,3.0,97,0.00,,,0.00,meteohub,2013-10-07 01:57:00,
2013-10-06 21:02:00,46.4,45.7,28.98,WNW,292,1.0,3.0,97,0.00,,,0.00,meteohub,2013-10-07 02:02:00,
2013-10-06 21:07:00,46.2,45.5,28.98,West,270,0.0,2.0,97,0.00,,,0.00,meteohub,2013-10-07 02:07:00,
2013-10-06 21:12:00,46.2,45.5,28.98,West,270,0.0,2.0,97,0.00,,,0.00,meteohub,2013-10-07 02:12:00,
2013-10-06 21:17:00,46.0,45.3,28.98,NNW,338,0.0,2.0,97,0.00,,,0.00,meteohub,2013-10-07 02:17:00,
2013-10-06 21:22:00,46.0,45.3,28.98,West,270,0.0,2.0,97,0.00,,,0.00,meteohub,2013-10-07 02:22:00,
2013-10-06 21:28:00,46.0,45.3,28.98,WSW,248,0.0,2.0,97,0.00,,,0.00,meteohub,2013-10-07 02:28:00,
2013-10-06 21:33:00,45.5,44.8,28.95,West,270,0.0,0.0,97,0.00,,,0.00,meteohub,2013-10-07 02:33:00,
2013-10-06 21:38:00,45.3,44.6,28.95,WSW,248,0.0,0.0,97,0.00,,,0.00,meteohub,2013-10-07 02:38:00,
2013-10-06 21:43:00,45.3,44.6,28.95,WSW,248,0.0,0.0,97,0.00,,,0.00,meteohub,2013-10-07 02:43:00,
2013-10-06 21:48:00,45.3,44.6,28.98,West,270,0.0,0.0,97,0.00,,,0.00,meteohub,2013-10-07 02:48:00,
2013-10-06 21:53:00,45.3,44.6,28.98,West,270,0.0,0.0,97,0.00,,,0.00,meteohub,2013-10-07 02:53:00,
2013-10-06 21:59:00,45.1,44.4,28.98,WSW,248,0.0,0.0,97,0.00,,,0.00,meteohub,2013-10-07 02:59:00,
2013-10-06 22:04:00,45.1,44.4,28.98,SW,225,0.0,0.0,97,0.00,,,0.00,meteohub,2013-10-07 03:04:00,
2013-10-06 22:09:00,45.0,44.2,28.98,SW,225,0.0,0.0,97,0.00,,,0.00,meteohub,2013-10-07 03:09:00,
2013-10-06 22:14:00,45.1,44.4,28.98,West,270,1.0,0.0,97,0.00,,,0.00,meteohub,2013-10-07 03:14:00,
2013-10-06 22:19:00,45.1,44.4,29.01,WSW,248,0.0,1.0,97,0.00,,,0.00,meteohub,2013-10-07 03:19:00,
2013-10-06 22:24:00,45.1,44.4,29.01,SW,225,0.0,1.0,97,0.00,,,0.00,meteohub,2013-10-07 03:24:00,
2013-10-06 22:30:00,45.3,44.8,29.01,West,270,0.0,1.0,98,0.00,,,0.00,meteohub,2013-10-07 03:30:00,
2013-10-06 22:35:00,45.1,44.6,29.01,West,270,0.0,1.0,98,0.00,,,0.00,meteohub,2013-10-07 03:35:00,
2013-10-06 22:40:00,45.1,44.4,29.01,West,270,0.0,0.0,97,0.00,,,0.00,meteohub,2013-10-07 03:40:00,
2013-10-06 22:45:00,45.0,44.4,29.01,West,270,0.0,0.0,98,0.00,,,0.00,meteohub,2013-10-07 03:45:00,
2013-10-06 22:50:00,45.0,44.4,29.01,WSW,248,0.0,0.0,98,0.00,,,0.00,meteohub,2013-10-07 03:50:00,
2013-10-06 22:55:00,45.0,44.4,29.01,WSW,248,0.0,0.0,98,0.00,,,0.00,meteohub,2013-10-07 03:55:00,
2013-10-06 23:00:00,44.8,44.2,29.01,WSW,248,0.0,0.0,98,0.00,,,0.00,meteohub,2013-10-07 04:00:00,
2013-10-06 23:01:00,44.8,44.2,29.01,WSW,248,0.0,0.0,98,0.00,,,0.00,meteohub,2013-10-07 04:01:00,
2013-10-06 23:02:00,44.8,44.2,29.01,WSW,248,0.0,0.0,98,0.00,,,0.00,meteohub,2013-10-07 04:02:00,
2013-10-06 23:07:00,44.6,44.1,29.01,WSW,248,0.0,0.0,98,0.00,,,0.00,meteohub,2013-10-07 04:07:00,
2013-10-06 23:12:00,44.6,44.1,29.01,WSW,248,0.0,0.0,98,0.00,,,0.00,meteohub,2013-10-07 04:12:00,
2013-10-06 23:17:00,44.8,44.2,29.01,West,270,0.0,0.0,98,0.00,,,0.00,meteohub,2013-10-07 04:17:00,
2013-10-06 23:22:00,45.0,44.4,29.01,WNW,292,2.0,2.0,98,0.00,,,0.00,meteohub,2013-10-07 04:22:00,
2013-10-06 23:27:00,45.0,44.4,29.01,West,270,1.0,2.0,98,0.00,,,0.00,meteohub,2013-10-07 04:27:00,
2013-10-06 23:33:00,45.1,44.6,29.01,West,270,3.0,3.0,98,0.00,,,0.00,meteohub,2013-10-07 04:33:00,
2013-10-06 23:38:00,45.3,44.8,29.01,WNW,292,1.0,2.0,98,0.00,,,0.00,meteohub,2013-10-07 04:38:00,
2013-10-06 23:43:00,45.1,44.6,29.01,WSW,248,0.0,4.0,98,0.00,,,0.00,meteohub,2013-10-07 04:43:00,
2013-10-06 23:48:00,45.3,44.8,29.01,North,0,0.0,4.0,98,0.00,,,0.00,meteohub,2013-10-07 04:48:00,
2013-10-06 23:53:00,45.3,44.8,29.01,North,0,0.0,4.0,98,0.00,,,0.00,meteohub,2013-10-07 04:53:00,
2013-10-06 23:58:00,45.1,44.6,29.01,NNW,338,0.0,3.0,98,0.00,,,0.00,meteohub,2013-10-07 04:58:00,